SWA2531 KAUS-KOKC

Flight info

Callsign SWA2531
Flight time 0h 56m
Altitude 30000
Route ELOEL3 KLNGR MQP TSDEL TSDEL3
Aircraft B738/M-SADE2E3GIJ4RWZ/LB1D1

Departure

Time 2026-05-03 21:08
Airport Austin Bergstrom International Airport (KAUS)

Arrival

Time 2026-05-03 22:04
Airport OKC Will Rogers World Airport (KOKC)
Time Latitude Longitude Altitude Speed Heading
2026-05-03 20:47 30.20123 -97.66723 500 ft 0 kts
2026-05-03 21:01 30.20109 -97.66725 500 ft 2 kts
2026-05-03 21:01 30.20093 -97.66727 487 ft 2 kts
2026-05-03 21:02 30.20077 -97.66729 500 ft 2 kts 10°
2026-05-03 21:02 30.20061 -97.66736 500 ft 2 kts 57°
2026-05-03 21:02 30.20058 -97.66746 500 ft 1 kts 96°
2026-05-03 21:02 30.20058 -97.66748 500 ft 0 kts 96°
2026-05-03 21:03 30.20048 -97.66716 500 ft 13 kts 124°
2026-05-03 21:03 30.19964 -97.66689 500 ft 11 kts 178°
2026-05-03 21:03 30.19909 -97.66640 500 ft 11 kts 102°
2026-05-03 21:04 30.19909 -97.66554 500 ft 11 kts 88°
2026-05-03 21:04 30.19911 -97.66466 500 ft 12 kts 89°
2026-05-03 21:04 30.19912 -97.66362 500 ft 14 kts 89°
2026-05-03 21:04 30.19914 -97.66238 500 ft 17 kts 88°
2026-05-03 21:05 30.19917 -97.66123 499 ft 12 kts 88°
2026-05-03 21:05 30.19919 -97.66022 487 ft 14 kts 89°
2026-05-03 21:05 30.19949 -97.65914 479 ft 14 kts 25°
2026-05-03 21:05 30.20039 -97.65908 480 ft 13 kts 358°
2026-05-03 21:06 30.20127 -97.65911 480 ft 12 kts 358°
2026-05-03 21:06 30.20213 -97.65913 482 ft 12 kts 358°
2026-05-03 21:06 30.20295 -97.65916 482 ft 12 kts 358°
2026-05-03 21:06 30.20364 -97.65891 485 ft 10 kts 54°
2026-05-03 21:07 30.20373 -97.65821 488 ft 8 kts 88°
2026-05-03 21:07 30.20333 -97.65789 482 ft 8 kts 173°
2026-05-03 21:07 30.20213 -97.65785 479 ft 43 kts 179°
2026-05-03 21:07 30.19690 -97.65771 475 ft 105 kts 178°
2026-05-03 21:08 30.18790 -97.65747 500 ft 151 kts 181°
2026-05-03 21:08 30.17687 -97.65706 911 ft 165 kts 178°
2026-05-03 21:08 30.16462 -97.65645 1173 ft 194 kts 178°
2026-05-03 21:08 30.15053 -97.65490 1360 ft 215 kts 163°
2026-05-03 21:09 30.13737 -97.64505 1509 ft 241 kts 131°
2026-05-03 21:09 30.12996 -97.62704 1882 ft 258 kts 100°
2026-05-03 21:09 30.12981 -97.60612 2617 ft 262 kts 89°
2026-05-03 21:09 30.13183 -97.58503 3350 ft 267 kts 76°
2026-05-03 21:10 30.14096 -97.56628 4148 ft 272 kts 47°
2026-05-03 21:10 30.15687 -97.55402 4840 ft 281 kts 20°
2026-05-03 21:10 30.17599 -97.55064 5584 ft 282 kts
2026-05-03 21:10 30.19569 -97.55111 6294 ft 286 kts 358°
2026-05-03 21:11 30.21570 -97.55173 7034 ft 287 kts 358°
2026-05-03 21:11 30.23568 -97.55227 7838 ft 287 kts 356°
2026-05-03 21:11 30.25571 -97.55285 8638 ft 287 kts 356°
2026-05-03 21:11 30.27566 -97.55344 9505 ft 287 kts 356°
2026-05-03 21:12 30.29570 -97.55395 10292 ft 291 kts 356°
2026-05-03 21:12 30.31666 -97.55453 10545 ft 313 kts 353°
2026-05-03 21:12 30.33836 -97.56041 10719 ft 331 kts 336°
2026-05-03 21:12 30.35936 -97.57305 10878 ft 350 kts 326°
2026-05-03 21:13 30.38011 -97.58841 11146 ft 365 kts 325°
2026-05-03 21:13 30.40155 -97.60472 11666 ft 371 kts 325°
2026-05-03 21:13 30.42320 -97.62122 12322 ft 374 kts 325°
2026-05-03 21:13 30.44505 -97.63778 12979 ft 377 kts 325°
2026-05-03 21:14 30.46709 -97.65438 13626 ft 381 kts 325°
2026-05-03 21:14 30.48952 -97.67120 14196 ft 386 kts 326°
2026-05-03 21:14 30.51212 -97.68810 14860 ft 387 kts 326°
2026-05-03 21:14 30.53475 -97.70501 15540 ft 388 kts 326°
2026-05-03 21:15 30.55750 -97.72201 16191 ft 390 kts 326°
2026-05-03 21:15 30.58036 -97.73910 16857 ft 391 kts 325°
2026-05-03 21:15 30.60321 -97.75618 17499 ft 392 kts 325°
2026-05-03 21:15 30.62620 -97.77340 18111 ft 394 kts 325°
2026-05-03 21:16 30.64934 -97.79073 18679 ft 396 kts 325°
2026-05-03 21:16 30.67226 -97.80791 19193 ft 397 kts 325°
2026-05-03 21:16 30.69558 -97.82539 19708 ft 399 kts 324°
2026-05-03 21:16 30.71896 -97.84293 20217 ft 401 kts 324°
2026-05-03 21:17 30.74326 -97.85931 20680 ft 406 kts 331°
2026-05-03 21:17 30.76070 -97.86775 20977 ft 411 kts 338°
2026-05-03 21:17 30.79747 -97.88101 21666 ft 414 kts 339°
2026-05-03 21:17 30.82508 -97.89087 22139 ft 416 kts 338°
2026-05-03 21:18 30.85279 -97.90098 22585 ft 418 kts 338°
2026-05-03 21:18 30.88026 -97.91117 23040 ft 420 kts 338°
2026-05-03 21:18 30.90820 -97.92160 23478 ft 422 kts 338°
2026-05-03 21:18 30.93631 -97.93206 23878 ft 424 kts 337°
2026-05-03 21:19 30.96452 -97.94253 24230 ft 426 kts 337°
2026-05-03 21:19 30.99284 -97.95302 24608 ft 427 kts 337°
2026-05-03 21:19 31.02118 -97.96353 25007 ft 428 kts 337°
2026-05-03 21:19 31.04957 -97.97407 25364 ft 429 kts 337°
2026-05-03 21:20 31.07813 -97.98468 25682 ft 431 kts 336°
2026-05-03 21:20 31.10641 -97.99521 26013 ft 432 kts 336°
2026-05-03 21:20 31.13546 -98.00602 26355 ft 434 kts 336°
2026-05-03 21:20 31.16388 -98.01660 26675 ft 435 kts 336°
2026-05-03 21:21 31.19275 -98.02733 27013 ft 436 kts 336°
2026-05-03 21:21 31.22244 -98.03557 27375 ft 443 kts 344°
2026-05-03 21:21 31.25325 -98.03903 27843 ft 449 kts 352°
2026-05-03 21:21 31.28452 -98.03830 28408 ft 447 kts 354°
2026-05-03 21:22 31.31559 -98.03716 28894 ft 445 kts 353°
2026-05-03 21:22 31.34651 -98.03600 29317 ft 445 kts 353°
2026-05-03 21:22 31.37747 -98.03491 29741 ft 444 kts 353°
2026-05-03 21:22 31.40832 -98.03391 30133 ft 443 kts 353°
2026-05-03 21:23 31.46996 -98.03213 30132 ft 442 kts 352°
2026-05-03 21:23 31.53128 -98.03045 30137 ft 441 kts 352°
2026-05-03 21:24 31.59227 -98.02882 30130 ft 441 kts 353°
2026-05-03 21:24 31.65358 -98.02715 30149 ft 440 kts 353°
2026-05-03 21:25 31.71494 -98.02547 30144 ft 440 kts 353°
2026-05-03 21:25 31.77623 -98.02379 30142 ft 440 kts 353°
2026-05-03 21:26 31.83753 -98.02211 30151 ft 440 kts 353°
2026-05-03 21:26 31.89856 -98.02043 30126 ft 440 kts 353°
2026-05-03 21:27 31.95985 -98.01873 30112 ft 439 kts 353°
2026-05-03 21:27 32.02057 -98.01705 30128 ft 437 kts 353°
2026-05-03 21:28 32.08148 -98.01537 30128 ft 437 kts 353°
2026-05-03 21:28 32.14232 -98.01370 30142 ft 436 kts 353°
2026-05-03 21:29 32.20299 -98.01202 30141 ft 436 kts 353°
2026-05-03 21:29 32.26330 -98.01035 30132 ft 435 kts 353°
2026-05-03 21:30 32.32388 -98.00866 30124 ft 434 kts 353°
2026-05-03 21:30 32.38426 -98.00699 30109 ft 434 kts 353°
2026-05-03 21:31 32.44479 -98.00531 30091 ft 434 kts 353°
2026-05-03 21:31 32.50499 -98.00363 30085 ft 434 kts 353°
2026-05-03 21:32 32.56536 -98.00194 30083 ft 434 kts 353°
2026-05-03 21:32 32.62577 -98.00026 30101 ft 434 kts 353°
2026-05-03 21:33 32.68627 -97.99857 30106 ft 435 kts 353°
2026-05-03 21:33 32.74681 -97.99245 30094 ft 448 kts
2026-05-03 21:34 32.80756 -97.97403 30103 ft 450 kts
2026-05-03 21:34 32.86828 -97.95514 30104 ft 451 kts
2026-05-03 21:35 32.92900 -97.93655 30107 ft 450 kts
2026-05-03 21:35 32.98930 -97.91830 30150 ft 450 kts
2026-05-03 21:36 33.05010 -97.89995 30104 ft 449 kts
2026-05-03 21:36 33.11071 -97.88165 30109 ft 449 kts
2026-05-03 21:37 33.14093 -97.87250 29975 ft 447 kts
2026-05-03 21:37 33.16085 -97.86645 29771 ft 445 kts
2026-05-03 21:37 33.19070 -97.85738 29501 ft 441 kts
2026-05-03 21:37 33.22054 -97.84834 29234 ft 444 kts
2026-05-03 21:38 33.25053 -97.83927 28968 ft 445 kts
2026-05-03 21:38 33.28069 -97.83014 28702 ft 447 kts
2026-05-03 21:38 33.31088 -97.82098 28438 ft 448 kts
2026-05-03 21:38 33.34112 -97.81179 28167 ft 449 kts
2026-05-03 21:39 33.37140 -97.80257 27909 ft 449 kts
2026-05-03 21:39 33.40170 -97.79334 27654 ft 449 kts
2026-05-03 21:39 33.43205 -97.78409 27388 ft 450 kts
2026-05-03 21:39 33.46204 -97.77493 27180 ft 450 kts
2026-05-03 21:40 33.49245 -97.76565 27111 ft 452 kts
2026-05-03 21:40 33.52298 -97.75633 27081 ft 452 kts
2026-05-03 21:40 33.55353 -97.74699 27074 ft 453 kts
2026-05-03 21:40 33.58402 -97.73765 27075 ft 453 kts
2026-05-03 21:41 33.61454 -97.72831 27085 ft 452 kts
2026-05-03 21:41 33.64508 -97.71895 27079 ft 452 kts
2026-05-03 21:41 33.67562 -97.70959 27074 ft 452 kts
2026-05-03 21:41 33.70611 -97.70024 27080 ft 452 kts
2026-05-03 21:42 33.73659 -97.69088 27095 ft 452 kts
2026-05-03 21:42 33.76712 -97.68151 27088 ft 453 kts
2026-05-03 21:42 33.79765 -97.67212 27072 ft 453 kts
2026-05-03 21:42 33.82819 -97.66273 27075 ft 453 kts
2026-05-03 21:43 33.85834 -97.65344 27078 ft 453 kts
2026-05-03 21:43 33.88889 -97.64403 27071 ft 453 kts
2026-05-03 21:43 33.91942 -97.63462 27067 ft 453 kts
2026-05-03 21:43 33.94998 -97.62518 27070 ft 453 kts
2026-05-03 21:44 33.98054 -97.61574 27090 ft 453 kts
2026-05-03 21:44 34.01111 -97.60630 27080 ft 453 kts
2026-05-03 21:44 34.04165 -97.59685 27072 ft 454 kts
2026-05-03 21:44 34.07230 -97.58737 27078 ft 454 kts
2026-05-03 21:45 34.10292 -97.57789 26729 ft 457 kts
2026-05-03 21:45 34.13361 -97.56838 26184 ft 451 kts
2026-05-03 21:45 34.16355 -97.55906 25564 ft 446 kts
2026-05-03 21:45 34.19350 -97.54974 24963 ft 441 kts
2026-05-03 21:46 34.22305 -97.54054 24375 ft 436 kts 10°
2026-05-03 21:46 34.25235 -97.53143 23785 ft 432 kts 10°
2026-05-03 21:46 34.28147 -97.52238 23100 ft 429 kts 11°
2026-05-03 21:46 34.31027 -97.51342 22456 ft 425 kts 11°
2026-05-03 21:47 34.33868 -97.50457 21869 ft 419 kts 11°
2026-05-03 21:47 34.36679 -97.49580 21277 ft 415 kts 11°
2026-05-03 21:47 34.39463 -97.48712 20703 ft 411 kts 11°
2026-05-03 21:47 34.42228 -97.47850 20139 ft 408 kts 11°
2026-05-03 21:48 34.44961 -97.46996 19588 ft 405 kts 11°
2026-05-03 21:48 34.47680 -97.46146 19038 ft 402 kts 11°
2026-05-03 21:48 34.50347 -97.45313 18501 ft 400 kts 11°
2026-05-03 21:48 34.53037 -97.44471 17872 ft 398 kts 12°
2026-05-03 21:49 34.55710 -97.43634 17273 ft 396 kts 12°
2026-05-03 21:49 34.58377 -97.42798 16699 ft 393 kts 12°
2026-05-03 21:49 34.61018 -97.41970 16136 ft 391 kts 12°
2026-05-03 21:49 34.63643 -97.41146 15590 ft 388 kts 12°
2026-05-03 21:50 34.66248 -97.40328 15053 ft 386 kts 12°
2026-05-03 21:50 34.68848 -97.39512 14519 ft 384 kts 13°
2026-05-03 21:50 34.71437 -97.38698 13961 ft 384 kts 13°
2026-05-03 21:50 34.74018 -97.37886 13467 ft 381 kts 13°
2026-05-03 21:51 34.76541 -97.37090 13304 ft 368 kts 13°
2026-05-03 21:51 34.78960 -97.36326 13131 ft 357 kts 12°
2026-05-03 21:51 34.81328 -97.35579 12977 ft 346 kts 12°
2026-05-03 21:51 34.83629 -97.34854 12831 ft 336 kts 12°
2026-05-03 21:52 34.85865 -97.34148 12688 ft 327 kts 12°
2026-05-03 21:52 34.88053 -97.33521 12543 ft 317 kts
2026-05-03 21:52 34.90189 -97.33731 12307 ft 305 kts 339°
2026-05-03 21:52 34.92082 -97.34800 11976 ft 299 kts 326°
2026-05-03 21:53 34.93842 -97.36134 11644 ft 297 kts 324°
2026-05-03 21:53 34.95583 -97.37493 11327 ft 296 kts 323°
2026-05-03 21:53 34.97292 -97.38827 11015 ft 295 kts 324°
2026-05-03 21:53 34.99028 -97.40171 10712 ft 294 kts 323°
2026-05-03 21:54 35.00760 -97.41501 10404 ft 293 kts 324°
2026-05-03 21:54 35.02484 -97.42820 10175 ft 289 kts 324°
2026-05-03 21:54 35.04165 -97.44102 10055 ft 281 kts 323°
2026-05-03 21:54 35.05812 -97.45358 9812 ft 279 kts 323°
2026-05-03 21:55 35.07482 -97.46501 9504 ft 282 kts 336°
2026-05-03 21:55 35.09426 -97.46845 9300 ft 283 kts 354°
2026-05-03 21:55 35.11391 -97.46948 8996 ft 282 kts 353°
2026-05-03 21:55 35.13352 -97.47058 8703 ft 281 kts 353°
2026-05-03 21:56 35.15302 -97.47175 8420 ft 280 kts 353°
2026-05-03 21:56 35.17249 -97.47298 8143 ft 279 kts 353°
2026-05-03 21:56 35.19183 -97.47420 7873 ft 279 kts 353°
2026-05-03 21:56 35.21121 -97.47544 7604 ft 278 kts 353°
2026-05-03 21:57 35.23057 -97.47668 7373 ft 276 kts 353°
2026-05-03 21:57 35.24925 -97.47787 7257 ft 269 kts 353°
2026-05-03 21:57 35.26777 -97.47905 7131 ft 263 kts 353°
2026-05-03 21:57 35.28584 -97.48020 7020 ft 257 kts 352°
2026-05-03 21:58 35.30355 -97.48134 6862 ft 254 kts 352°
2026-05-03 21:58 35.32140 -97.48251 6676 ft 258 kts 352°
2026-05-03 21:58 35.33940 -97.48369 6500 ft 259 kts 352°
2026-05-03 21:58 35.35726 -97.48484 6333 ft 255 kts 352°
2026-05-03 21:59 35.37473 -97.48595 6154 ft 249 kts 352°
2026-05-03 21:59 35.39203 -97.48699 5880 ft 250 kts 354°
2026-05-03 21:59 35.40932 -97.48710 5566 ft 246 kts 355°
2026-05-03 21:59 35.42624 -97.48698 5259 ft 241 kts 356°
2026-05-03 22:00 35.44288 -97.48690 4932 ft 237 kts 355°
2026-05-03 22:00 35.45905 -97.48699 4643 ft 232 kts 353°
2026-05-03 22:00 35.47449 -97.49077 4316 ft 222 kts 329°
2026-05-03 22:00 35.48627 -97.50171 4059 ft 207 kts 303°
2026-05-03 22:01 35.49347 -97.51631 3795 ft 196 kts 287°
2026-05-03 22:01 35.49702 -97.53207 3543 ft 188 kts 270°
2026-05-03 22:01 35.49637 -97.54765 3331 ft 180 kts 253°
2026-05-03 22:01 35.49221 -97.56190 3087 ft 176 kts 238°
2026-05-03 22:02 35.48516 -97.57391 2840 ft 173 kts 224°
2026-05-03 22:02 35.47579 -97.58250 2649 ft 164 kts 210°
2026-05-03 22:02 35.46547 -97.58737 2470 ft 154 kts 192°
2026-05-03 22:02 35.45518 -97.58853 2315 ft 147 kts 189°
2026-05-03 22:03 35.44495 -97.58898 2122 ft 145 kts 185°
2026-05-03 22:03 35.43537 -97.58898 1932 ft 135 kts 182°
2026-05-03 22:03 35.42589 -97.58897 1757 ft 136 kts 181°
2026-05-03 22:03 35.41640 -97.58896 1572 ft 136 kts 184°
2026-05-03 22:04 35.40689 -97.58895 1374 ft 137 kts 184°
2026-05-03 22:04 35.39750 -97.58892 1291 ft 131 kts 185°
2026-05-03 22:04 35.38986 -97.58896 1293 ft 57 kts 178°
2026-05-03 22:04 35.38816 -97.58932 1292 ft 16 kts 230°
2026-05-03 22:05 35.38816 -97.59041 1290 ft 13 kts 317°
2026-05-03 22:05 35.38858 -97.59059 1291 ft 0 kts 354°
2026-05-03 22:05 35.38918 -97.59062 1292 ft 20 kts 358°
2026-05-03 22:05 35.39076 -97.59063 1291 ft 23 kts
2026-05-03 22:06 35.39200 -97.59078 1290 ft 15 kts 320°
2026-05-03 22:06 35.39217 -97.59194 1292 ft 14 kts 270°
2026-05-03 22:06 35.39215 -97.59309 1294 ft 13 kts 268°
2026-05-03 22:06 35.39215 -97.59419 1294 ft 13 kts 269°
2026-05-03 22:07 35.39215 -97.59530 1293 ft 14 kts 271°
2026-05-03 22:07 35.39216 -97.59667 1292 ft 19 kts 270°
2026-05-03 22:07 35.39227 -97.59810 1292 ft 15 kts 303°
2026-05-03 22:07 35.39316 -97.59827 1293 ft 13 kts
2026-05-03 22:08 35.39401 -97.59812 1296 ft 11 kts 39°
2026-05-03 22:08 35.39423 -97.59733 1296 ft 10 kts 44°
2026-05-03 22:08 35.39461 -97.59699 1296 ft 0 kts 35°